SBI907 UIII-UNNT

Flight info

Callsign SBI907
Flight time 0h 52m
Altitude 36000
Route BOGRA4D BOGRA A815 TUTEK M97 LIBZI R497 LONKA A822 LAPAK B151 KESED B926 NATIR NATIR1M
Aircraft A320/M-SDE3FGHIRWY/LB1

Departure

Time 2026-05-08 13:41
Airport Irkutsk International Airport (UIII)

Arrival

Time 2026-05-08 14:33
Airport Novosibirsk Tolmachevo Airport (UNNT)
Time Latitude Longitude Altitude Speed Heading
2026-05-08 13:21 52.27196 104.36446 1584 ft 0 kts 20°
2026-05-08 13:30 52.27182 104.36437 1584 ft 2 kts 20°
2026-05-08 13:30 52.27166 104.36428 1584 ft 2 kts 22°
2026-05-08 13:30 52.27153 104.36410 1584 ft 2 kts 95°
2026-05-08 13:30 52.27154 104.36397 1584 ft 0 kts 128°
2026-05-08 13:33 52.27153 104.36404 1584 ft 2 kts 111°
2026-05-08 13:33 52.27143 104.36449 1584 ft 6 kts 109°
2026-05-08 13:34 52.27124 104.36538 1584 ft 10 kts 111°
2026-05-08 13:34 52.27093 104.36670 1585 ft 14 kts 110°
2026-05-08 13:34 52.27060 104.36820 1587 ft 14 kts 110°
2026-05-08 13:34 52.27028 104.36960 1590 ft 13 kts 110°
2026-05-08 13:35 52.26999 104.37091 1593 ft 12 kts 110°
2026-05-08 13:35 52.26994 104.37212 1596 ft 11 kts 74°
2026-05-08 13:35 52.26989 104.37325 1598 ft 10 kts 110°
2026-05-08 13:35 52.26964 104.37422 1605 ft 10 kts 113°
2026-05-08 13:36 52.26936 104.37529 1604 ft 11 kts 113°
2026-05-08 13:36 52.26903 104.37654 1605 ft 14 kts 114°
2026-05-08 13:36 52.26860 104.37813 1611 ft 17 kts 113°
2026-05-08 13:36 52.26807 104.38013 1618 ft 21 kts 113°
2026-05-08 13:37 52.26746 104.38244 1621 ft 24 kts 113°
2026-05-08 13:37 52.26675 104.38511 1629 ft 27 kts 118°
2026-05-08 13:37 52.26595 104.38806 1632 ft 30 kts 113°
2026-05-08 13:37 52.26511 104.39130 1639 ft 32 kts 113°
2026-05-08 13:38 52.26418 104.39476 1647 ft 34 kts 114°
2026-05-08 13:38 52.26322 104.39836 1656 ft 32 kts 114°
2026-05-08 13:38 52.26232 104.40176 1672 ft 34 kts 113°
2026-05-08 13:38 52.26137 104.40535 1671 ft 35 kts 113°
2026-05-08 13:39 52.26070 104.40788 1679 ft 36 kts 113°
2026-05-08 13:39 52.25999 104.41061 1682 ft 13 kts 105°
2026-05-08 13:39 52.26045 104.41193 1687 ft 16 kts 27°
2026-05-08 13:39 52.26120 104.41248 1690 ft 13 kts 24°
2026-05-08 13:40 52.26213 104.41298 1690 ft 11 kts 338°
2026-05-08 13:40 52.26232 104.41253 1683 ft 4 kts 292°
2026-05-08 13:40 52.26257 104.41158 1680 ft 19 kts 292°
2026-05-08 13:40 52.26420 104.40547 1669 ft 97 kts 294°
2026-05-08 13:41 52.26779 104.39207 1636 ft 157 kts 293°
2026-05-08 13:41 52.27277 104.37396 1890 ft 185 kts 294°
2026-05-08 13:41 52.27827 104.35434 2547 ft 193 kts 295°
2026-05-08 13:41 52.28397 104.33456 3299 ft 190 kts 295°
2026-05-08 13:42 52.28963 104.31478 3818 ft 200 kts 294°
2026-05-08 13:42 52.29561 104.29321 4134 ft 223 kts 303°
2026-05-08 13:42 52.30764 104.27589 4491 ft 244 kts 333°
2026-05-08 13:42 52.32393 104.26535 5084 ft 257 kts 343°
2026-05-08 13:43 52.34116 104.25724 5977 ft 258 kts 345°
2026-05-08 13:43 52.35848 104.24943 6888 ft 258 kts 344°
2026-05-08 13:43 52.37578 104.24115 7760 ft 259 kts 342°
2026-05-08 13:43 52.39305 104.23225 8630 ft 261 kts 341°
2026-05-08 13:44 52.41039 104.22281 9452 ft 264 kts 340°
2026-05-08 13:44 52.42787 104.21296 10229 ft 269 kts 340°
2026-05-08 13:44 52.44624 104.20236 10504 ft 291 kts 340°
2026-05-08 13:44 52.46602 104.19080 10811 ft 310 kts 340°
2026-05-08 13:45 52.48656 104.17881 11446 ft 316 kts 340°
2026-05-08 13:45 52.50743 104.16656 12161 ft 320 kts 340°
2026-05-08 13:45 52.52851 104.15412 12888 ft 323 kts 340°
2026-05-08 13:45 52.54981 104.14157 13605 ft 327 kts 340°
2026-05-08 13:46 52.57137 104.12893 14239 ft 330 kts 340°
2026-05-08 13:46 52.59310 104.11621 14843 ft 333 kts 340°
2026-05-08 13:46 52.61499 104.10333 15523 ft 335 kts 340°
2026-05-08 13:46 52.63702 104.09032 16149 ft 338 kts 340°
2026-05-08 13:47 52.65927 104.07716 16765 ft 341 kts 340°
2026-05-08 13:47 52.68176 104.06383 17373 ft 345 kts 340°
2026-05-08 13:47 52.70446 104.05038 17969 ft 349 kts 340°
2026-05-08 13:47 52.72738 104.03680 18522 ft 352 kts 340°
2026-05-08 13:48 52.75053 104.02308 19028 ft 355 kts 340°
2026-05-08 13:48 52.77387 104.00924 19534 ft 358 kts 340°
2026-05-08 13:48 52.79744 103.99528 20034 ft 361 kts 340°
2026-05-08 13:48 52.82088 103.98134 20518 ft 364 kts 340°
2026-05-08 13:49 52.84483 103.96706 20994 ft 368 kts 340°
2026-05-08 13:49 52.86899 103.95266 21474 ft 371 kts 340°
2026-05-08 13:49 52.89340 103.93810 21945 ft 374 kts 340°
2026-05-08 13:49 52.91800 103.92339 22415 ft 377 kts 340°
2026-05-08 13:50 52.94275 103.90857 22872 ft 380 kts 340°
2026-05-08 13:50 52.96773 103.89354 23317 ft 384 kts 340°
2026-05-08 13:50 52.99292 103.87837 23732 ft 387 kts 340°
2026-05-08 13:50 53.01835 103.86306 24126 ft 389 kts 340°
2026-05-08 13:51 53.04390 103.84770 24522 ft 391 kts 340°
2026-05-08 13:51 53.06957 103.83224 24920 ft 393 kts 340°
2026-05-08 13:51 53.09529 103.81672 25345 ft 394 kts 340°
2026-05-08 13:51 53.12107 103.80116 25742 ft 395 kts 341°
2026-05-08 13:52 53.14704 103.78539 26142 ft 397 kts 339°
2026-05-08 13:52 53.17233 103.76647 26500 ft 400 kts 336°
2026-05-08 13:52 53.19761 103.74670 26875 ft 401 kts 336°
2026-05-08 13:52 53.22296 103.72688 27240 ft 403 kts 336°
2026-05-08 13:53 53.24842 103.70697 27605 ft 405 kts 336°
2026-05-08 13:53 53.27398 103.68695 27967 ft 407 kts 336°
2026-05-08 13:53 53.29969 103.66677 28342 ft 409 kts 336°
2026-05-08 13:53 53.32554 103.64645 28677 ft 411 kts 336°
2026-05-08 13:54 53.35150 103.62604 29013 ft 413 kts 336°
2026-05-08 13:54 53.37753 103.60555 29346 ft 415 kts 336°
2026-05-08 13:54 53.40355 103.58507 29670 ft 417 kts 336°
2026-05-08 13:54 53.42986 103.56432 29980 ft 418 kts 336°
2026-05-08 13:55 53.45557 103.54245 30246 ft 421 kts 329°
2026-05-08 13:55 53.47909 103.51278 30475 ft 425 kts 319°
2026-05-08 13:55 53.51308 103.43125 31054 ft 435 kts 294°
2026-05-08 13:56 53.52375 103.38372 31412 ft 434 kts 292°
2026-05-08 13:56 53.53347 103.33566 31781 ft 433 kts 290°
2026-05-08 13:56 53.54361 103.27957 32220 ft 432 kts 289°
2026-05-08 13:56 53.57604 103.08620 33729 ft 426 kts 289°
2026-05-08 13:57 53.60977 102.89661 35007 ft 420 kts 289°
2026-05-08 13:57 53.64286 102.70759 35952 ft 421 kts 288°
2026-05-08 13:57 53.67525 102.51885 35976 ft 418 kts 288°
2026-05-08 13:58 53.73896 102.14202 35957 ft 417 kts 288°
2026-05-08 13:58 53.80185 101.76444 35897 ft 418 kts 288°
2026-05-08 13:59 53.86311 101.38629 36003 ft 416 kts 287°
2026-05-08 13:59 53.92309 101.00773 35970 ft 416 kts 287°
2026-05-08 14:00 53.98135 100.63130 35965 ft 413 kts 287°
2026-05-08 14:00 54.03890 100.25176 35953 ft 410 kts 287°
2026-05-08 14:01 54.09426 99.87776 35954 ft 410 kts 286°
2026-05-08 14:01 54.14884 99.49917 35932 ft 410 kts 286°
2026-05-08 14:02 54.20216 99.12064 35945 ft 410 kts 285°
2026-05-08 14:02 54.25422 98.74187 35943 ft 408 kts 285°
2026-05-08 14:03 54.30496 98.36333 35948 ft 407 kts 284°
2026-05-08 14:03 54.35419 97.98573 35941 ft 405 kts 284°
2026-05-08 14:04 54.40195 97.60928 35955 ft 402 kts 284°
2026-05-08 14:04 54.44830 97.23440 35987 ft 399 kts 284°
2026-05-08 14:05 54.49341 96.86138 35986 ft 397 kts 283°
2026-05-08 14:05 54.53637 96.49276 35983 ft 395 kts 283°
2026-05-08 14:06 54.57855 96.12166 35980 ft 394 kts 283°
2026-05-08 14:06 54.61958 95.74970 35981 ft 395 kts 282°
2026-05-08 14:07 54.65982 95.37599 35970 ft 396 kts 281°
2026-05-08 14:07 54.69851 95.00170 35976 ft 396 kts 281°
2026-05-08 14:08 54.73636 94.62656 35980 ft 396 kts 281°
2026-05-08 14:08 54.77277 94.25035 35969 ft 396 kts 280°
2026-05-08 14:09 54.80832 93.87316 35955 ft 396 kts 280°
2026-05-08 14:09 54.84263 93.49561 35949 ft 396 kts 279°
2026-05-08 14:10 54.87568 93.11746 35926 ft 396 kts 279°
2026-05-08 14:10 54.90755 92.73875 35920 ft 396 kts 278°
2026-05-08 14:11 54.93845 92.35854 35904 ft 398 kts 278°
2026-05-08 14:11 54.96802 91.97696 35894 ft 398 kts 278°
2026-05-08 14:12 54.99637 91.59522 35898 ft 400 kts 278°
2026-05-08 14:12 55.02391 91.20998 35926 ft 401 kts 277°
2026-05-08 14:13 55.05014 90.82289 35928 ft 402 kts 277°
2026-05-08 14:13 55.07521 90.43761 35945 ft 402 kts 277°
2026-05-08 14:14 55.09903 90.05015 35949 ft 401 kts 277°
2026-05-08 14:14 55.12161 89.66255 35955 ft 401 kts 277°
2026-05-08 14:15 55.14298 89.27507 35961 ft 400 kts 277°
2026-05-08 14:15 55.16303 88.88750 35942 ft 400 kts 277°
2026-05-08 14:16 55.18190 88.49975 35992 ft 400 kts 277°
2026-05-08 14:16 55.19941 88.11227 35999 ft 398 kts 276°
2026-05-08 14:17 55.21574 87.72669 35981 ft 396 kts 276°
2026-05-08 14:17 55.23062 87.34320 35976 ft 394 kts 276°
2026-05-08 14:18 55.24429 86.96137 35976 ft 391 kts 276°
2026-05-08 14:18 55.25685 86.58075 35455 ft 392 kts 276°
2026-05-08 14:18 55.26257 86.39220 34481 ft 384 kts 276°
2026-05-08 14:19 55.26775 86.20769 33470 ft 376 kts 275°
2026-05-08 14:19 55.26676 86.02576 32371 ft 371 kts 268°
2026-05-08 14:19 55.25806 85.84620 31339 ft 367 kts 268°
2026-05-08 14:19 55.24929 85.66865 30344 ft 363 kts 267°
2026-05-08 14:20 55.24046 85.49570 29246 ft 356 kts 267°
2026-05-08 14:20 55.23144 85.32416 28155 ft 351 kts 267°
2026-05-08 14:20 55.22730 85.24716 27668 ft 349 kts 267°
2026-05-08 14:20 55.22237 85.15605 27085 ft 347 kts 267°
2026-05-08 14:21 55.21312 84.98840 26047 ft 343 kts 267°
2026-05-08 14:21 55.20368 84.82296 25061 ft 340 kts 266°
2026-05-08 14:21 55.19029 84.65982 24085 ft 340 kts 256°
2026-05-08 14:21 55.16286 84.50197 22923 ft 338 kts 256°
2026-05-08 14:22 55.13570 84.34574 21057 ft 334 kts 256°
2026-05-08 14:22 55.10875 84.19153 19284 ft 330 kts 256°
2026-05-08 14:22 55.08161 84.03842 17487 ft 329 kts 256°
2026-05-08 14:22 55.06653 83.93745 16430 ft 323 kts 259°
2026-05-08 14:23 55.03981 83.73590 14279 ft 321 kts 258°
2026-05-08 14:23 55.02562 83.63360 13172 ft 320 kts 258°
2026-05-08 14:23 54.99821 83.43819 11238 ft 307 kts 258°
2026-05-08 14:23 54.99262 83.39879 10931 ft 302 kts 257°
2026-05-08 14:24 54.98921 83.37493 10788 ft 297 kts 257°
2026-05-08 14:24 54.98420 83.33999 10390 ft 298 kts 257°
2026-05-08 14:24 54.97830 83.30562 10013 ft 298 kts 248°
2026-05-08 14:24 54.96800 83.27451 9755 ft 294 kts 238°
2026-05-08 14:25 54.95695 83.24520 9654 ft 293 kts 238°
2026-05-08 14:25 54.94582 83.21557 9525 ft 292 kts 238°
2026-05-08 14:25 54.93465 83.18575 9088 ft 296 kts 238°
2026-05-08 14:25 54.92350 83.15602 8767 ft 291 kts 238°
2026-05-08 14:26 54.91250 83.12676 8514 ft 288 kts 238°
2026-05-08 14:26 54.90157 83.09773 8298 ft 286 kts 238°
2026-05-08 14:26 54.89069 83.06890 8066 ft 284 kts 238°
2026-05-08 14:26 54.87984 83.04012 7842 ft 284 kts 238°
2026-05-08 14:27 54.86902 83.01147 7608 ft 283 kts 238°
2026-05-08 14:27 54.85822 82.98297 7388 ft 282 kts 238°
2026-05-08 14:27 54.84748 82.95466 7168 ft 281 kts 238°
2026-05-08 14:27 54.83678 82.92636 6936 ft 279 kts 239°
2026-05-08 14:28 54.82676 82.89731 6475 ft 283 kts 242°
2026-05-08 14:28 54.81734 82.86757 6120 ft 280 kts 243°
2026-05-08 14:28 54.80893 82.83709 5676 ft 278 kts 254°
2026-05-08 14:28 54.80692 82.80444 5341 ft 272 kts 277°
2026-05-08 14:29 54.81221 82.77328 4856 ft 272 kts 298°
2026-05-08 14:29 54.82418 82.74721 4115 ft 282 kts 316°
2026-05-08 14:29 54.83866 82.72322 3358 ft 293 kts 316°
2026-05-08 14:29 54.85349 82.69858 2850 ft 293 kts 316°
2026-05-08 14:30 54.86785 82.67457 2673 ft 280 kts 316°
2026-05-08 14:30 54.88217 82.65290 2537 ft 267 kts 327°
2026-05-08 14:30 54.89869 82.64050 2424 ft 253 kts 347°
2026-05-08 14:30 54.91549 82.63520 2399 ft 237 kts 349°
2026-05-08 14:31 54.93147 82.63033 2094 ft 229 kts 349°
2026-05-08 14:31 54.94677 82.62566 1777 ft 217 kts 349°
2026-05-08 14:31 54.96110 82.62128 1496 ft 207 kts 349°
2026-05-08 14:32 54.98770 82.61315 1010 ft 179 kts 349°
2026-05-08 14:32 54.99925 82.60961 779 ft 160 kts 349°
2026-05-08 14:32 55.00977 82.60639 571 ft 149 kts 349°
2026-05-08 14:32 55.01973 82.60334 388 ft 145 kts 349°
2026-05-08 14:33 55.02827 82.60071 376 ft 100 kts 350°
2026-05-08 14:33 55.03341 82.59914 376 ft 50 kts 350°
2026-05-08 14:33 55.03628 82.59826 376 ft 40 kts 349°
2026-05-08 14:33 55.03895 82.59739 374 ft 39 kts 350°
2026-05-08 14:34 55.04155 82.59657 373 ft 38 kts 349°
2026-05-08 14:34 55.04406 82.59573 376 ft 36 kts 348°